Location: Nachod
(50.4170°N, 16.1670°E)
Time: 01:37:39
(UTC+01:00)

BUGSAT 1 - Visible Passes

Search period start: 28 February 2021 00:00
Search period end: 10 March 2021 00:00
Orbit: 558 x 602 km, 98.1° (Epoch: 27 February)

Date Brightness Start Highest point End Pass type
(mag) Time Alt. Az. Time Alt. Az. Time Alt. Az.
28 Feb ? 04:08:23 10° NNE 04:12:27 73° ESE 04:12:29 73° ESE visible
28 Feb ? 05:44:57 10° NNW 05:47:13 15° WNW 05:48:50 12° W visible
01 Mar ? 04:13:24 10° NNE 04:17:27 82° ESE 04:17:44 75° SSE visible
01 Mar ? 05:50:11 10° NNW 05:52:11 13° WNW 05:54:05 10° W visible
02 Mar ? 02:45:59 10° ENE 02:46:33 10° E 02:46:39 10° E visible
02 Mar ? 04:18:25 10° NNE 04:22:29 89° WNW 04:23:00 67° SSW visible
02 Mar ? 05:55:29 10° NNW 05:57:08 12° NW 05:58:45 10° W visible
03 Mar ? 02:50:12 10° ENE 02:51:37 12° E 02:51:54 11° E visible
03 Mar ? 04:23:26 10° NNE 04:27:29 80° WNW 04:28:15 57° SSW visible
03 Mar ? 06:00:53 10° NW 06:02:05 11° NW 06:03:15 10° WNW visible
04 Mar ? 02:54:49 10° ENE 02:56:42 13° E 02:57:10 13° E visible
04 Mar ? 04:28:28 10° N 04:32:29 71° WNW 04:33:31 47° SW visible
05 Mar ? 02:59:32 10° NE 03:01:45 14° E 03:02:26 14° E visible
05 Mar ? 04:33:30 10° N 04:37:30 63° WNW 04:38:47 39° SW visible
06 Mar ? 03:04:19 10° NE 03:06:50 16° E 03:07:41 15° ESE visible
06 Mar ? 04:38:32 10° N 04:42:30 56° WNW 04:44:02 33° SW visible
07 Mar ? 03:09:07 10° NE 03:11:53 18° E 03:12:57 16° ESE visible
07 Mar ? 04:43:35 10° N 04:47:29 50° WNW 04:49:18 28° SW visible
08 Mar ? 03:13:58 10° NE 03:16:57 20° E 03:18:13 17° ESE visible
08 Mar ? 04:48:38 10° N 04:52:29 45° WNW 04:54:34 23° SW visible
09 Mar ? 03:18:51 10° NE 03:22:00 22° E 03:23:29 18° SE visible
09 Mar ? 04:53:41 10° N 04:57:28 40° WNW 04:59:50 20° SW visible
